LIRQLIPE

Guest
Details From LIRQ - Firenze
To LIPE - BOLOGNA
Flight Number -
Tags generated
Created
Modified
Stats Distance 44 nm / 81 km
Max Altitude 0 ft / 0 m
Waypoints 3
Social Downloads 6
Likes 0
Share VATSIM

Download

Looking for another format? Having issues loading an existing format? Contact us
Advertisement - Login to hide

Notes

Basic altitude profile: - Ascent Rate: 2500ft/min - Ascent Speed: 250kts - Cruise Altitude: 35000ft - Cruise Speed: 420kts - Descent Rate: 1500ft/min - Descent Speed: 250kts Options: - Use NATs: yes - Use PACOTS: yes - Use low airways: yes - Use high airways: yes

Route

LIRQ BOA LIPE

ID Type Via Altitude Latitude Longitude Leg Dist Tot Dist Heading (true) Name
O LIRQ APT - 0 ft / 0 m 43.80998˚ 11.20512˚ - 0 nm - Firenze
BOA VOR - 0 ft / 0 m 44.53694˚ 11.29055˚ 43 nm 43 nm 5° / 5° BOLOGNA VOR-DME
O LIPE APT - 0 ft / 0 m 44.53545˚ 11.28866˚ 0 nm 43 nm 222° / 222° BOLOGNA

Altitude Profile

Advertisement - Login to hide

LIRQ

Details ICAO LIRQ (FLR)
Name Firenze
Region Italy
Timezone Europe/Rome (UTC+1.0)
Stats Elevation 142 ft / 43 m (AMSL)
Location 43.809984° 11.205118°
Runways 1
Magnetic Variation 2.874° E

METAR

LIRQ 130920Z 10003KT 9999 FEW060 10/09 Q1018

Decode

TAF

TAF LIRQ 130500Z 1306/1406 VRB06KT 9999 SCT040

Decode

Departure Runways

ID Width Length Bearing (true) Bearing (mag) Surface Threshold Offset Overrun Length
05 98 ft / 30 m 5,420 ft / 1,652 m 48.52° 45.65° Asphalt 492 ft / 150 m 0 ft / 0 m
23 98 ft / 30 m 5,420 ft / 1,652 m 228.53° 225.66° Asphalt 2,287 ft / 697 m 0 ft / 0 m

LIPE

Details ICAO LIPE (BLQ)
Name BOLOGNA
Region Italy
Timezone Europe/Rome (UTC+1.0)
Stats Elevation 123 ft / 37 m (AMSL)
Location 44.535446° 11.288662°
Runways 1
Magnetic Variation 2.917° E

METAR

LIPE 130920Z 34004KT 300V010 8000 FEW050 06/03 Q1018

Decode

TAF

TAF LIPE 130500Z 1306/1406 VRB05KT 7000 FEW050 TEMPO 1306/1308 2000 BR BECMG 1320/1323 3000 BR

Decode

Destination Runways

ID Width Length Bearing (true) Bearing (mag) Surface Threshold Offset Overrun Length
12 148 ft / 45 m 9,185 ft / 2,800 m 116.78° 113.86° Asphalt 1,007 ft / 307 m 0 ft / 0 m
30 148 ft / 45 m 9,185 ft / 2,800 m 296.81° 293.89° Asphalt 1,188 ft / 362 m 200 ft / 61 m

Approach Navaids

Runway Type Ident Frequency Range Bearing (true) Bearing (mag) Slope Elevation
12 Localiser BLN 108.90 MHz 18 nm / 33 km 116.81° 113.89° - 123 ft / 37 m (AMSL)
12 Glidescope BLN 108.90 MHz 10 nm / 19 km 116.80° 113.88° 3.00° 120 ft / 37 m (AMSL)
12 DME BLN 108.90 MHz 18 nm / 33 km - - - 131 ft / 40 m (AMSL)
30 Localiser IBBP 109.75 MHz 18 nm / 33 km 296.66° 293.74° - 123 ft / 37 m (AMSL)
30 Glidescope IBBP 109.75 MHz 10 nm / 19 km 296.88° 293.96° 3.50° 123 ft / 37 m (AMSL)
30 DME IBBP 109.75 MHz 18 nm / 33 km - - - 123 ft / 37 m (AMSL)

Popular Alternatives